Regional Weather Roundup
Issued by NWS State College, PA

Home | Current Version | Previous Version | Text Only | Print | Product List | Glossary Off
Versions: 1 2 3 4 5 6 7 8 9 10 11 12 13 14 15 16 17 18 19 20 21 22 23 24 25 26 27 28 29 30 31 32 33 34 35 36 37 38 39 40 41 42 43 44 45 46 47 48 49 50

000
ASUS41 KCTP 052210
RWRCTP

REGIONAL WEATHER ROUNDUP
NATIONAL WEATHER SERVICE STATE COLLEGE PA
600 PM EDT THU MAY 05 2016

Note: "fair" indicates few or no clouds below 12,000 feet with no
significant weather and/or obstructions to visibility.

* = STATION THAT DOES NOT REPORT PRECIPITATION /E.G. RAIN...SNOW...ETC/
    THUNDER OR FOG.

PAZ002>004-007>009-013>016-020>023-029>032-052300-
WESTERN PENNSYLVANIA

CITY           SKY/WX    TMP DP  RH WIND       PRES   REMARKS
ERIE           SUNNY     58  45  62 NE16G24   29.79S
MEADVILLE      PTSUNNY   55  44  66 N13       29.76R
FRANKLIN*      PTSUNNY   57  46  67 N12       29.75R
NEW CASTLE     CLOUDY    55  49  80 N8        29.74R
BEAVER COUNTY  CLOUDY    52  48  87 N7        29.73R
BUTLER*        CLOUDY    55  45  67 N5        29.74R
PITTSBURGH INT CLOUDY    56  46  69 N13       29.71R
PITTSBURGH     LGT RAIN  55  49  80 N5        29.69R
INDIANA*       CLOUDY    59  43  55 NE7G15    29.71R
LATROBE        PTSUNNY   54  54 100 CALM      29.69R
WASHINGTON CO* NOT AVBL
$$

PAZ004>006-010>012-017>019-024>028-033>037-041-042-045-046-049>053-052300-
CENTRAL PENNSYLVANIA

CITY           SKY/WX    TMP DP  RH WIND       PRES   REMARKS
BRADFORD       PTSUNNY   55  39  54 NE14G22   29.73R
DUBOIS         CLOUDY    57  40  52 NE15G24   29.69R
CLEARFIELD     CLOUDY    57  40  52 NE13      29.69R
JOHNSTOWN      CLOUDY    56  38  50 N15G22    29.66R
ALTOONA        CLOUDY    57  44  62 N14       29.66R
STATE COLLEGE  CLOUDY    55  43  62 NE13      29.68R
WILLIAMSPORT   CLOUDY    58  42  55 NE6       29.68R
SELINSGROVE    CLOUDY    58  44  60 N13       29.68R
FT INDIANTOWN  CLOUDY    56  46  69 VRB5      29.65R
CAPITAL CITY   CLOUDY    59  45  59 N6        29.65S
HARRISBURG     CLOUDY    58  44  60 NE8       29.64S
YORK           CLOUDY    56  46  69 N6        29.65S
$$

PAZ038>040-043-044-047-048-054-055-060>062-067>071-052300-
EASTERN PENNSYLVANIA

CITY           SKY/WX    TMP DP  RH WIND       PRES   REMARKS
SCRANTON       CLOUDY    56  44  64 N8        29.65F
MOUNT POCONO   CLOUDY    50  42  74 N5        29.65R
ALLENTOWN      CLOUDY    59  46  62 NE7       29.64S
QUAKERTOWN*    CLOUDY    55  46  71 NE7       29.64S
READING        CLOUDY    58  45  62 N7        29.62S
LANCASTER      CLOUDY    56  48  74 N10       29.64S
COATESVILLE    CLOUDY    55  50  82 MISG      29.65R
POTTSTOWN      CLOUDY    56  46  69 N7        29.64S
BLUE BELL      CLOUDY    54  45  71 CALM      29.62S
DOYLESTOWN     CLOUDY    54  45  71 N9        29.62S
WILLOW GROVE   NOT AVBL
NORTH PHILA    CLOUDY    58  46  64 NE13      29.64S
PHILADELPHIA   CLOUDY    58  45  62 NE8       29.63S
$$




USA.gov is the U.S. government's official web portal to all federal, state and local government web resources and services.